Printer-friendly version

IAU Minor Planet Center

Minor Planet Center

MPEC 2005-E70 : 2005 EY95

The following Minor Planet Electronic Circular may be linked-to from your own Web pages, but must not otherwise be redistributed electronically.


Read MPEC 2005-E69 Read MPEC 2005-E71


M.P.E.C. 2005-E70                                Issued 2005 Mar. 12, 15:02 UT

     The Minor Planet Electronic Circulars contain information on unusual
         minor planets and routine data on comets.  They are published
   on behalf of Commission 20 of the International Astronomical Union by the
          Minor Planet Center, Smithsonian Astrophysical Observatory,
                          Cambridge, MA 02138, U.S.A.

                  Supported in part by the Brinson Foundation
             Prepared using the Tamkin Foundation Computer Network

                              MPC@CFA.HARVARD.EDU
          URL http://cfa-www.harvard.edu/iau/mpc.html  ISSN 1523-6714

                                   2005 EY95

Observations:
     K05E95Y* C2005 03 11.40545 15 27 38.93 -00 41 25.8          18.8 R EE070703
     K05E95Y  C2005 03 11.41245 15 27 35.54 -00 41 13.1          18.5 R EE070703
     K05E95Y  C2005 03 11.41950 15 27 32.18 -00 41 00.7          18.4 R EE070703
     K05E95Y  C2005 03 11.42656 15 27 28.76 -00 40 49.5          18.4 R EE070703
     K05E95Y  C2005 03 11.45181 15 27 16.54 -00 40 04.3          18.0 R EE070703
     K05E95Y  C2005 03 11.45742 15 27 13.80 -00 39 54.6          18.1 R EE070703
     K05E95Y  C2005 03 11.46299 15 27 11.19 -00 39 44.7          18.2 R EE070703
     K05E95Y  C2005 03 11.46857 15 27 08.01 -00 39 40.1          16.4 R EE070703
     K05E95Y  C2005 03 11.78898 15 24 38.02 -00 29 28.9          18.6 R EE070E12
     K05E95Y  C2005 03 11.79039 15 24 37.36 -00 29 26.6          18.8 R EE070E12
     K05E95Y  C2005 03 11.79178 15 24 36.62 -00 29 23.6          19.1 R EE070E12
     K05E95Y  C2005 03 11.79314 15 24 35.97 -00 29 20.9          19.0 R EE070E12
     K05E95Y  C2005 03 12.42710 15 19 41.40 -00 11 47.0          18.4 R EE070G96
     K05E95Y  C2005 03 12.42896 15 19 39.85 -00 11 46.2          18.3 V EE070H36
     K05E95Y  C2005 03 12.43370 15 19 38.22 -00 11 35.4          18.1 R EE070G96
     K05E95Y  C2005 03 12.43420 15 19 37.38 -00 11 39.2          18.4 V EE070H36
     K05E95Y  C2005 03 12.43942 15 19 34.86 -00 11 29.7          18.6 V EE070H36
     K05E95Y  C2005 03 12.44030 15 19 35.05 -00 11 24.0          18.2 R EE070G96
     K05E95Y  C2005 03 12.44693 15 19 31.84 -00 11 12.5          18.5 R EE070G96
     K05E95Y 3C2005 03 12.49667 15 19 07.73 -00 09 47.0          19.4 V EE070H06
     K05E95Y 3C2005 03 12.50155 15 19 05.29 -00 09 38.2          18.9 V EE070H06
     K05E95Y 3C2005 03 12.50639 15 19 02.92 -00 09 28.3          19.2 V EE070H06

Observer details:
703 Catalina Sky Survey.  Measurers E. C. Beshore, C. M. Casey,
    E. J. Christensen, G. J. Garradd, R. E. Hill, S. M. Larson, R. H. McNaught.
    0.68-m Schmidt + CCD.
E12 Siding Spring Survey.  Observer R. H. McNaught.  Measurers E. C. Beshore,
    C. M. Casey, E. J. Christensen, G. J. Garradd, R. E. Hill, S. M. Larson,
    R. H. McNaught.  0.5-m Uppsala Schmidt + CCD.
G96 Mt. Lemmon Survey.  Observer E. J. Christensen.  Measurers E. C. Beshore,
    C. M. Casey, E. J. Christensen, G. J. Garradd, R. E. Hill, S. M. Larson,
    R. H. McNaught.  1.5-m reflector + CCD.
H06 New Mexico Skies Observatory.  Observer J. Sue.  0.25-m reflector + CCD.
H36 Sandlot Observatory, Scranton.  Observer G. Hug.  0.3-m f/6
    Schmidt-Cassegrain + CCD.

Orbital elements:
2005 EY95                                                            PHA 0.017
Epoch 2005 Mar. 11.0 TT = JDT 2453440.5                 MPC
M  61.75081              (2000.0)            P               Q
n   0.88535040     Peri.  342.42757     +0.58113504     -0.81210925
a   1.0741360      Node    72.01114     +0.75313084     +0.51222216
e   0.5348226      Incl.    3.16675     +0.30834396     +0.27947633
P   1.11           H   20.2           G   0.15
From 21 observations 2005 Mar. 11-12.

Ephemeris:
2005 EY95                a,e,i = 1.07, 0.53, 3                   q = 0.4997
Date    TT    R. A. (2000) Decl.     Delta      r     Elong.  Phase     V
2005 03 11    15 30.79   -00 52.9    0.192    1.098   118.4    52.8    18.8
2005 03 21    14 15.69   +03 33.7    0.215    1.181   146.3    27.9    18.5
2005 03 31    13 15.38   +06 22.9    0.264    1.257   166.0    11.1    18.5
2005 04 10    12 35.07   +07 30.2    0.336    1.325   161.8    13.7    19.2
2005 04 20    12 11.67   +07 29.6    0.425    1.386   148.8    22.1    20.1
2005 04 30    12 00.12   +06 50.3    0.528    1.440   137.2    28.3    20.9
2005 05 10    11 56.48   +05 48.7    0.641    1.488   127.3    32.6    21.5
2005 05 20    11 58.24   +04 32.8    0.760    1.529   118.7    35.5    22.0

Timothy B. Spahr             (C) Copyright 2005 MPC           M.P.E.C. 2005-E70

Read MPEC 2005-E69 Read MPEC 2005-E71


Our Web policy. Index to the CBAT/MPC/ICQ pages.


Valid HTML 4.01!